Hourly Data Report for November 28, 2017

All times are specified in Local Standard Time (LST). Add 1 hour to adjust for Daylight Saving Time where and when it is observed.

BATHURST A
NEW BRUNSWICK

47°37'47.000" N
65°44'20.000" W
58.80 m
8100505
71574
ZBF

Download Data

Hourly Data (November 2017)
Hourly Data Report for November 28, 2017
Temp Definition
°C
Dew Point Temp Definition
°C
Rel Hum Definition
%
Wind Dir Definition
10's deg

Wind Spd Definition
km/h
Visibility Definition
km
Stn Press Definition
kPa
Hmdx Definition


Wind Chill Definition


Weather Definition


TIME
00:00 Legend Double Dagger -7.3 -11.8 71 29 18 24.1 101.10   -14 LegendNANA
01:00 Legend Double Dagger -7.7 -12.0 72 28 14 24.1 101.17   -14 LegendNANA
02:00 Legend Double Dagger -7.7 -12.4 69 28 17 24.1 101.32   -14 Clear
03:00 Legend Double Dagger -8.0 -12.6 70 28 12 24.1 101.44   -13 LegendNANA
04:00 Legend Double Dagger -8.2 -12.7 70 29 10 24.1 101.48   -13 LegendNANA
05:00 Legend Double Dagger -8.4 -12.7 72 28 11 24.1 101.61   -14 Clear
06:00 Legend Double Dagger -9.9 -12.8 80 27 10 24.1 101.70   -15 LegendNANA
07:00 Legend Double Dagger -10.2 -13.0 80 27 7 24.1 101.83   -14 LegendNANA
08:00 Legend Double Dagger -10.0 -13.2 78 26 6 24.1 101.96   -14 Mainly Clear
09:00 Legend Double Dagger -8.5 -12.9 71 28 13 24.1 102.05   -14 LegendNANA
10:00 Legend Double Dagger -7.5 -12.9 65 28 13 24.1 102.05   -13 LegendNANA
11:00 Legend Double Dagger -6.0 -12.6 60 26 10 24.1 102.03   -10 Mostly Cloudy
12:00 Legend Double Dagger -4.8 -12.1 57 25 14 24.1 102.01   -10 LegendNANA
13:00 Legend Double Dagger -3.8 -13.1 49 23 4 24.1 101.91   -5 LegendNANA
14:00 Legend Double Dagger -3.2 -12.9 47 36 3 24.1 101.86   -4 Cloudy
15:00 Legend Double Dagger -2.6 -15.2 38 23 9 24.1 101.79   -6 LegendNANA
16:00 Legend Double Dagger -2.4 -13.3 43 17 7 24.1 101.77   -5 LegendNANA
17:00 Legend Double Dagger -2.6 -15.0 38 19 8 24.1 101.66   -6 Cloudy
18:00 Legend Double Dagger -3.0 -12.2 49 19 16 24.1 101.53   -8 LegendNANA
19:00 Legend Double Dagger -3.1 -12.8 47 19 13 24.1 101.41   -8 LegendNANA
20:00 Legend Double Dagger -3.2 -12.9 47 19 17 24.1 101.25   -9 Cloudy
21:00 Legend Double Dagger -3.1 -12.6 48 19 16 24.1 101.09   -8 LegendNANA
22:00 Legend Double Dagger -2.7 -12.2 48 20 19 24.1 101.01   -8 LegendNANA
23:00 Legend Double Dagger -2.4 -10.5 54 18 14 24.1 100.80   -7 Cloudy

Notes on Data Quality.

Legend

  • E = Estimated
  • M = Missing
  • NA = Not Available
  • ‡ = Partner data that is not subject to review by the National Climate Archives
Date modified: